Weather History for Perry, IA

Change the Weather History Date:

Friday, May 24, 2013

  Actual Average Record
Temperature  
Mean Temperature 58 °F -  
Max Temperature 73 °F 73 °F 90 °F (1967)
Min Temperature 44 °F 51 °F 39 °F (1968)
Degree Days  
Heating Degree Days 6    
Growing Degree Days 8 (Base 50)    
Moisture  
Dew Point 43 °F    
Average Humidity 54    
Maximum Humidity 83    
Minimum Humidity 30    
Precipitation  
Precipitation 0.00 in - - ()
Sea Level Pressure  
Sea Level Pressure 30.27 in    
Wind  
Wind Speed 10 mph (SE)    
Max Wind Speed 22 mph    
Max Gust Speed 28 mph    
Visibility 10 miles    
Events Rain    
Averages and records for this station are not official NWS values.
T = Trace of Precipitation, MM = Missing Value Source: NWS Daily Summary

Daily Weather History Graph

Daily Weather History Graph

Search for Another Location

Airport:

Trip Planner

Search our weather history database for the weather conditions in past years. The results will help you decide how hot, cold, wet, or windy it might be!

Date:

Astronomy

May. 24, 2013 Rise Set
Actual Time 5:48 AM CDT 8:38 PM CDT
Civil Twilight 5:15 AM CDT 9:11 PM CDT
Nautical Twilight 4:34 AM CDT 9:53 PM CDT
Astronomical Twilight 3:46 AM CDT 10:41 PM CDT
Moon 8:21 PM CDT (5/24) 5:22 AM CDT (5/24)
Length of Visible Light 15h 55m
Length of Day
14h 50m
Full, 100% of the Moon is Illuminated
May 24
Full
May 24
Full
May 31
Last Quarter
Jun 8
New
Jun 16
First Quarter

Hourly Weather History & Observations

Time (CDT) Temp. Windchill Dew Point Humidity Pressure Visibility Wind Dir Wind Speed Gust Speed Precip Events Conditions
12:15 AM 54.1 °F - 40.1 °F 59% 30.28 in 10.0 mi ENE 8.1 mph - N/A   Clear
12:35 AM 54.0 °F - 39.9 °F 59% 30.28 in 10.0 mi NE 8.1 mph - N/A   Clear
12:55 AM 53.4 °F - 40.1 °F 61% 30.30 in 10.0 mi ENE 5.8 mph - N/A   Clear
1:15 AM 52.7 °F - 40.1 °F 62% 30.30 in 10.0 mi East 6.9 mph - N/A   Clear
1:35 AM 52.0 °F - 40.3 °F 64% 30.30 in 10.0 mi East 4.6 mph - N/A   Clear
1:55 AM 50.5 °F - 40.3 °F 68% 30.30 in 10.0 mi East 5.8 mph - N/A   Clear
2:15 AM 49.3 °F - 40.5 °F 72% 30.30 in 10.0 mi East 6.9 mph - N/A   Clear
2:35 AM 50.0 °F - 40.6 °F 70% 30.30 in 10.0 mi East 4.6 mph - N/A   Clear
2:55 AM 50.0 °F - 40.8 °F 71% 30.30 in 10.0 mi East 4.6 mph - N/A   Clear
3:15 AM 50.0 °F - 40.5 °F 70% 30.30 in 10.0 mi East 5.8 mph - N/A   Clear
3:35 AM 49.3 °F - 40.5 °F 72% 30.30 in 10.0 mi East 4.6 mph - N/A   Clear
3:55 AM 48.6 °F - 40.5 °F 74% 30.31 in 10.0 mi Calm Calm - N/A   Clear
4:15 AM 48.4 °F - 40.3 °F 74% 30.31 in 10.0 mi Calm Calm - N/A   Clear
4:35 AM 48.2 °F - 40.3 °F 74% 30.31 in 10.0 mi Calm Calm - N/A   Clear
4:55 AM 47.7 °F - 40.1 °F 75% 30.32 in 10.0 mi Calm Calm - N/A   Clear
5:15 AM 47.3 °F - 40.3 °F 77% 30.31 in 10.0 mi East 4.6 mph - N/A   Clear
5:35 AM 46.8 °F - 40.3 °F 78% 30.32 in 10.0 mi ESE 3.5 mph - N/A   Clear
5:55 AM 45.7 °F 43.4 °F 39.6 °F 79% 30.32 in 10.0 mi SE 4.6 mph - N/A   Clear
6:15 AM 44.6 °F 41.4 °F 39.6 °F 82% 30.32 in 10.0 mi ESE 5.8 mph - N/A   Clear
6:35 AM 46.0 °F 43.1 °F 41.0 °F 83% 30.33 in 10.0 mi ESE 5.8 mph - N/A   Clear
6:55 AM 48.2 °F - 41.7 °F 78% 30.33 in 10.0 mi ESE 6.9 mph - N/A   Clear
7:15 AM 50.9 °F - 42.3 °F 72% 30.33 in 10.0 mi SE 4.6 mph - N/A   Clear
7:35 AM 53.4 °F - 41.7 °F 65% 30.35 in 10.0 mi SSE 5.8 mph - N/A   Clear
7:55 AM 55.4 °F - 41.9 °F 60% 30.35 in 10.0 mi SE 6.9 mph - N/A   Clear
8:15 AM 57.9 °F - 42.8 °F 57% 30.34 in 10.0 mi SE 10.4 mph - N/A   Clear
8:35 AM 59.4 °F - 42.3 °F 53% 30.34 in 10.0 mi SE 15.0 mph - N/A   Clear
8:55 AM 60.8 °F - 42.3 °F 50% 30.34 in 10.0 mi SE 13.8 mph - N/A   Clear
9:15 AM 62.2 °F - 43.0 °F 49% 30.35 in 10.0 mi SE 16.1 mph - N/A   Clear
9:35 AM 62.6 °F - 43.7 °F 50% 30.35 in 10.0 mi SE 16.1 mph - N/A   Clear
9:55 AM 63.7 °F - 43.7 °F 48% 30.34 in 10.0 mi SSE 15.0 mph - N/A   Clear
10:15 AM 64.6 °F - 44.4 °F 48% 30.34 in 10.0 mi SSE 16.1 mph 20.7 mph N/A   Clear
10:35 AM 65.5 °F - 43.9 °F 46% 30.33 in 10.0 mi SSE 17.3 mph - N/A   Clear
10:55 AM 66.4 °F - 41.0 °F 40% 30.32 in 10.0 mi SSE 15.0 mph 23.0 mph N/A   Clear
11:15 AM 66.9 °F - 42.1 °F 40% 30.31 in 10.0 mi SSE 16.1 mph 23.0 mph N/A   Clear
11:35 AM 67.6 °F - 42.1 °F 39% 30.31 in 10.0 mi SSE 13.8 mph 23.0 mph N/A   Clear
11:55 AM 68.0 °F - 42.4 °F 39% 30.31 in 10.0 mi SSE 13.8 mph 24.2 mph N/A   Clear
12:15 PM 69.6 °F - 42.6 °F 38% 30.30 in 10.0 mi SSE 19.6 mph 23.0 mph N/A   Clear
12:35 PM 69.6 °F - 42.8 °F 38% 30.29 in 10.0 mi SSE 18.4 mph 24.2 mph N/A   Clear
12:55 PM 70.0 °F - 41.4 °F 35% 30.28 in 10.0 mi SSE 16.1 mph 24.2 mph N/A   Clear
1:15 PM 70.5 °F - 43.7 °F 38% 30.28 in 10.0 mi SSE 19.6 mph 24.2 mph N/A   Clear
1:35 PM 70.7 °F - 42.6 °F 36% 30.27 in 10.0 mi SSE 17.3 mph 21.9 mph N/A   Clear
1:55 PM 71.4 °F - 41.9 °F 34% 30.27 in 10.0 mi SSE 17.3 mph 25.3 mph N/A   Clear
2:15 PM 71.8 °F - 41.9 °F 34% 30.26 in 10.0 mi SSE 17.3 mph 27.6 mph N/A   Clear
2:35 PM 72.3 °F - 42.6 °F 34% 30.25 in 10.0 mi SSE 21.9 mph 26.5 mph N/A   Clear
2:55 PM 71.6 °F - 43.7 °F 37% 30.24 in 10.0 mi SE 20.7 mph 26.5 mph N/A   Clear
3:15 PM 72.3 °F - 44.2 °F 36% 30.24 in 10.0 mi SSE 15.0 mph 26.5 mph N/A   Clear
3:35 PM 72.9 °F - 42.3 °F 33% 30.23 in 10.0 mi South 19.6 mph 23.0 mph N/A   Clear
3:55 PM 73.2 °F - 41.4 °F 32% 30.22 in 10.0 mi South 21.9 mph 27.6 mph N/A   Clear
4:15 PM 72.7 °F - 41.9 °F 33% 30.22 in 10.0 mi SSE 13.8 mph 20.7 mph N/A   Clear
4:35 PM 72.9 °F - 41.7 °F 33% 30.21 in 10.0 mi SSE 20.7 mph 25.3 mph N/A   Clear
4:55 PM 73.6 °F - 40.5 °F 30% 30.21 in 10.0 mi South 18.4 mph 25.3 mph N/A   Clear
5:15 PM 73.2 °F - 40.6 °F 31% 30.20 in 10.0 mi South 19.6 mph 26.5 mph N/A   Clear
5:35 PM 72.9 °F - 41.0 °F 32% 30.20 in 10.0 mi South 18.4 mph 26.5 mph N/A   Clear
5:55 PM 71.1 °F - 41.0 °F 34% 30.19 in 10.0 mi SSE 17.3 mph - N/A   Scattered Clouds
6:15 PM 70.2 °F - 41.5 °F 35% 30.17 in 10.0 mi SSE 17.3 mph - N/A   Mostly Cloudy
6:35 PM 69.4 °F - 41.4 °F 36% 30.16 in 10.0 mi SSE 18.4 mph 26.5 mph N/A   Scattered Clouds
6:55 PM 67.5 °F - 44.8 °F 44% 30.14 in 10.0 mi SE 18.4 mph - N/A   Scattered Clouds
7:15 PM 66.2 °F - 44.6 °F 46% 30.17 in 10.0 mi SE 10.4 mph - N/A   Scattered Clouds
7:35 PM 65.5 °F - 45.0 °F 47% 30.16 in 10.0 mi SE 15.0 mph - N/A   Mostly Cloudy
7:55 PM 64.6 °F - 46.4 °F 52% 30.17 in 10.0 mi SE 9.2 mph 16.1 mph N/A   Mostly Cloudy
8:15 PM 64.0 °F - 47.3 °F 54% 30.18 in 10.0 mi ESE 11.5 mph - N/A Rain Light Rain
8:35 PM 63.9 °F - 47.8 °F 56% 30.19 in 10.0 mi East 11.5 mph - N/A Rain Light Rain
8:55 PM 61.5 °F - 48.7 °F 63% 30.17 in 10.0 mi East 15.0 mph - N/A Rain Light Rain
9:15 PM 60.8 °F - 48.6 °F 64% 30.16 in 10.0 mi ESE 15.0 mph - N/A   Mostly Cloudy
9:35 PM 60.8 °F - 48.6 °F 64% 30.18 in 10.0 mi ESE 12.7 mph - N/A   Scattered Clouds
9:55 PM 59.9 °F - 49.3 °F 68% 30.17 in 10.0 mi ESE 13.8 mph - N/A   Scattered Clouds
10:15 PM 59.9 °F - 48.7 °F 67% 30.20 in 10.0 mi SE 13.8 mph 17.3 mph N/A   Clear
10:35 PM 59.2 °F - 48.7 °F 68% 30.20 in 10.0 mi ESE 11.5 mph - N/A   Scattered Clouds
10:55 PM 59.4 °F - 48.7 °F 68% 30.22 in 10.0 mi SE 9.2 mph - N/A   Mostly Cloudy
11:15 PM 59.9 °F - 48.4 °F 66% 30.22 in 10.0 mi SE 9.2 mph - N/A   Overcast
11:35 PM 59.9 °F - 47.3 °F 63% 30.23 in 10.0 mi SSE 10.4 mph - N/A   Overcast
11:55 PM 59.5 °F - 46.9 °F 63% 30.22 in 10.0 mi SE 9.2 mph - N/A   Overcast